Time,TemperatureF,DewpointF,PressureIn,WindDirection,WindDirectionDegrees,WindSpeedMPH,WindSpeedGustMPH,Humidity,HourlyPrecipIn,Conditions,Clouds,dailyrainin,SoftwareType,DateUTC
2013-08-09 00:01:00,77.0,76.0,-100.00,SSW,211,0.0,0.0,96,0.00,,,0.30,,2013-08-09 04:01:00,
2013-08-09 00:12:00,77.0,76.0,-100.00,SSW,211,0.0,0.0,96,0.00,,,0.30,,2013-08-09 04:12:00,
2013-08-09 00:22:00,77.0,76.0,-100.00,SSW,211,0.0,0.0,96,0.00,,,0.30,,2013-08-09 04:22:00,
2013-08-09 00:53:00,77.0,76.0,-100.00,South,172,0.0,0.0,97,0.00,,,0.30,,2013-08-09 04:53:00,
2013-08-09 01:02:00,77.0,76.0,-100.00,South,172,0.0,0.0,97,0.00,,,0.30,,2013-08-09 05:02:00,
2013-08-09 01:11:00,77.0,76.0,-100.00,South,172,0.0,0.0,97,0.00,,,0.30,,2013-08-09 05:11:00,
2013-08-09 01:22:00,77.0,76.0,-100.00,South,172,0.0,0.0,97,0.00,,,0.30,,2013-08-09 05:22:00,
2013-08-09 01:43:00,76.0,75.0,-100.00,SSE,166,0.0,0.0,97,0.00,,,0.30,,2013-08-09 05:43:00,
2013-08-09 01:52:00,76.0,75.0,-100.00,SSE,166,0.0,0.0,97,0.00,,,0.30,,2013-08-09 05:52:00,
2013-08-09 02:01:00,76.0,75.0,-100.00,SSE,166,0.0,0.0,97,0.00,,,0.30,,2013-08-09 06:01:00,
2013-08-09 02:11:00,76.0,75.0,-100.00,SSE,166,0.0,0.0,97,0.00,,,0.30,,2013-08-09 06:11:00,
2013-08-09 02:22:00,76.0,75.0,-100.00,SSE,166,0.0,0.0,97,0.00,,,0.30,,2013-08-09 06:22:00,
2013-08-09 02:43:00,76.0,75.0,-100.00,SW,217,0.0,0.0,98,0.00,,,0.30,,2013-08-09 06:43:00,
2013-08-09 02:52:00,76.0,75.0,-100.00,SW,217,0.0,0.0,98,0.00,,,0.30,,2013-08-09 06:52:00,
2013-08-09 03:01:00,76.0,75.0,-100.00,SW,217,0.0,0.0,98,0.00,,,0.30,,2013-08-09 07:01:00,
2013-08-09 03:12:00,76.0,75.0,-100.00,SW,217,0.0,0.0,98,0.00,,,0.30,,2013-08-09 07:12:00,
2013-08-09 03:22:00,76.0,75.0,-100.00,SW,217,0.0,0.0,98,0.00,,,0.30,,2013-08-09 07:22:00,
2013-08-09 03:43:00,76.0,75.0,-100.00,SSW,199,0.0,0.0,98,0.00,,,0.30,,2013-08-09 07:43:00,
2013-08-09 03:53:00,76.0,75.0,-100.00,SSW,199,0.0,0.0,98,0.00,,,0.30,,2013-08-09 07:53:00,
2013-08-09 04:02:00,76.0,75.0,-100.00,SSW,199,0.0,0.0,98,0.00,,,0.30,,2013-08-09 08:02:00,
2013-08-09 04:12:00,76.0,75.0,-100.00,SSW,199,0.0,0.0,98,0.00,,,0.30,,2013-08-09 08:12:00,
2013-08-09 04:22:00,76.0,75.0,-100.00,SSW,199,0.0,0.0,98,0.00,,,0.30,,2013-08-09 08:22:00,
2013-08-09 04:43:00,75.0,74.0,-100.00,SSE,156,0.0,0.0,98,0.00,,,0.30,,2013-08-09 08:43:00,
2013-08-09 04:53:00,75.0,74.0,-100.00,SSE,156,0.0,0.0,98,0.00,,,0.30,,2013-08-09 08:53:00,
2013-08-09 05:02:00,75.0,74.0,-100.00,SSE,156,0.0,0.0,98,0.00,,,0.30,,2013-08-09 09:02:00,
2013-08-09 05:12:00,75.0,74.0,-100.00,SSE,156,0.0,0.0,98,0.00,,,0.30,,2013-08-09 09:12:00,
2013-08-09 05:22:00,75.0,74.0,-100.00,SSE,156,0.0,0.0,98,0.00,,,0.30,,2013-08-09 09:22:00,
2013-08-09 05:52:00,75.0,74.0,-100.00,South,180,0.0,0.0,98,0.00,,,0.30,,2013-08-09 09:52:00,
2013-08-09 06:01:00,75.0,74.0,-100.00,South,180,0.0,0.0,98,0.00,,,0.30,,2013-08-09 10:01:00,
2013-08-09 06:12:00,75.0,74.0,-100.00,South,180,0.0,0.0,98,0.00,,,0.30,,2013-08-09 10:12:00,
2013-08-09 06:22:00,75.0,74.0,-100.00,South,180,0.0,0.0,98,0.00,,,0.30,,2013-08-09 10:22:00,
2013-08-09 06:43:00,75.0,74.0,-100.00,West,275,0.0,0.0,98,0.00,,,0.30,,2013-08-09 10:43:00,
2013-08-09 06:53:00,75.0,74.0,-100.00,West,275,0.0,0.0,98,0.00,,,0.30,,2013-08-09 10:53:00,
2013-08-09 07:02:00,75.0,74.0,-100.00,West,275,0.0,0.0,98,0.00,,,0.30,,2013-08-09 11:02:00,
2013-08-09 07:11:00,75.0,74.0,-100.00,West,275,0.0,0.0,98,0.00,,,0.30,,2013-08-09 11:11:00,
2013-08-09 07:22:00,75.0,74.0,-100.00,West,275,0.0,0.0,98,0.00,,,0.30,,2013-08-09 11:22:00,
2013-08-09 07:53:00,75.0,74.0,-100.00,West,281,0.0,0.0,98,0.00,,,0.30,,2013-08-09 11:53:00,
2013-08-09 08:02:00,75.0,74.0,-100.00,West,281,0.0,0.0,98,0.00,,,0.30,,2013-08-09 12:02:00,
2013-08-09 08:12:00,75.0,74.0,-100.00,West,281,0.0,0.0,98,0.00,,,0.30,,2013-08-09 12:12:00,
2013-08-09 08:22:00,75.0,74.0,-100.00,West,281,0.0,0.0,98,0.00,,,0.30,,2013-08-09 12:22:00,
2013-08-09 08:23:00,80.0,78.0,-100.00,SW,234,0.0,2.0,94,0.00,,,0.30,,2013-08-09 12:23:00,
2013-08-09 08:43:00,80.0,78.0,-100.00,SW,234,0.0,2.0,94,0.00,,,0.30,,2013-08-09 12:43:00,
2013-08-09 08:52:00,80.0,78.0,-100.00,SW,234,0.0,2.0,94,0.00,,,0.30,,2013-08-09 12:52:00,
2013-08-09 09:01:00,80.0,78.0,-100.00,SW,234,0.0,2.0,94,0.00,,,0.30,,2013-08-09 13:01:00,
2013-08-09 09:12:00,80.0,78.0,-100.00,SW,234,0.0,2.0,94,0.00,,,0.30,,2013-08-09 13:12:00,
2013-08-09 09:52:00,85.0,78.0,-100.00,NW,316,2.0,6.0,80,0.00,,,0.30,,2013-08-09 13:52:00,
2013-08-09 10:02:00,85.0,78.0,-100.00,NW,316,2.0,6.0,80,0.00,,,0.30,,2013-08-09 14:02:00,
2013-08-09 10:11:00,85.0,78.0,-100.00,NW,316,2.0,6.0,80,0.00,,,0.30,,2013-08-09 14:11:00,
2013-08-09 10:22:00,85.0,78.0,-100.00,NW,316,2.0,6.0,80,0.00,,,0.30,,2013-08-09 14:22:00,
2013-08-09 10:43:00,88.0,78.0,-100.00,WNW,291,3.0,7.0,72,0.00,,,0.30,,2013-08-09 14:43:00,
2013-08-09 10:53:00,88.0,78.0,-100.00,WNW,291,3.0,7.0,72,0.00,,,0.30,,2013-08-09 14:53:00,
2013-08-09 11:02:00,88.0,78.0,-100.00,WNW,291,3.0,7.0,72,0.00,,,0.30,,2013-08-09 15:02:00,
2013-08-09 11:12:00,88.0,78.0,-100.00,WNW,291,3.0,7.0,72,0.00,,,0.30,,2013-08-09 15:12:00,
2013-08-09 11:22:00,88.0,78.0,-100.00,WNW,291,3.0,7.0,72,0.00,,,0.30,,2013-08-09 15:22:00,
2013-08-09 11:53:00,88.0,74.0,-100.00,WNW,302,4.0,7.0,63,0.00,,,0.30,,2013-08-09 15:53:00,
2013-08-09 12:02:00,88.0,74.0,-100.00,WNW,302,4.0,7.0,63,0.00,,,0.30,,2013-08-09 16:02:00,
2013-08-09 12:11:00,88.0,74.0,-100.00,WNW,302,4.0,7.0,63,0.00,,,0.30,,2013-08-09 16:11:00,
2013-08-09 12:22:00,88.0,74.0,-100.00,WNW,302,4.0,7.0,63,0.00,,,0.30,,2013-08-09 16:22:00,
2013-08-09 12:53:00,89.0,74.0,-100.00,WNW,289,3.0,8.0,61,0.00,,,0.30,,2013-08-09 16:53:00,
2013-08-09 13:02:00,89.0,74.0,-100.00,WNW,289,3.0,8.0,61,0.00,,,0.30,,2013-08-09 17:02:00,
2013-08-09 13:11:00,89.0,74.0,-100.00,WNW,289,3.0,8.0,61,0.00,,,0.30,,2013-08-09 17:11:00,
2013-08-09 13:22:00,89.0,74.0,-100.00,WNW,289,3.0,8.0,61,0.00,,,0.30,,2013-08-09 17:22:00,
2013-08-09 13:52:00,92.0,72.0,-100.00,NNE,23,3.0,6.0,53,0.00,,,0.00,,2013-08-09 17:52:00,
2013-08-09 14:01:00,92.0,72.0,-100.00,NNE,23,3.0,6.0,53,0.00,,,0.00,,2013-08-09 18:01:00,
2013-08-09 14:11:00,92.0,72.0,-100.00,NNE,23,3.0,6.0,53,0.00,,,0.00,,2013-08-09 18:11:00,
2013-08-09 14:22:00,92.0,72.0,-100.00,NNE,23,3.0,6.0,53,0.00,,,0.00,,2013-08-09 18:22:00,
2013-08-09 14:53:00,93.0,73.0,-100.00,SSE,151,3.0,8.0,53,0.00,,,0.00,,2013-08-09 18:53:00,
2013-08-09 15:02:00,93.0,73.0,-100.00,SSE,151,3.0,8.0,53,0.00,,,0.00,,2013-08-09 19:02:00,
2013-08-09 15:11:00,93.0,73.0,-100.00,SSE,151,3.0,8.0,53,0.00,,,0.00,,2013-08-09 19:11:00,
2013-08-09 15:22:00,93.0,73.0,-100.00,SSE,151,3.0,8.0,53,0.00,,,0.00,,2013-08-09 19:22:00,
2013-08-09 15:43:00,94.0,74.0,-100.00,ESE,123,3.0,8.0,52,0.00,,,0.00,,2013-08-09 19:43:00,
2013-08-09 15:52:00,94.0,74.0,-100.00,ESE,123,3.0,8.0,52,0.00,,,0.00,,2013-08-09 19:52:00,
2013-08-09 16:02:00,94.0,74.0,-100.00,ESE,123,3.0,8.0,52,0.00,,,0.00,,2013-08-09 20:02:00,
2013-08-09 16:11:00,94.0,74.0,-100.00,ESE,123,3.0,8.0,52,0.00,,,0.00,,2013-08-09 20:11:00,
2013-08-09 16:22:00,94.0,74.0,-100.00,ESE,123,3.0,8.0,52,0.00,,,0.00,,2013-08-09 20:22:00,
2013-08-09 16:43:00,94.0,76.0,-100.00,SE,129,3.0,8.0,56,0.00,,,0.00,,2013-08-09 20:43:00,
2013-08-09 16:52:00,94.0,76.0,-100.00,SE,129,3.0,8.0,56,0.00,,,0.00,,2013-08-09 20:52:00,
2013-08-09 17:01:00,94.0,76.0,-100.00,SE,129,3.0,8.0,56,0.00,,,0.00,,2013-08-09 21:01:00,
2013-08-09 17:12:00,94.0,76.0,-100.00,SE,129,3.0,8.0,56,0.00,,,0.00,,2013-08-09 21:12:00,
2013-08-09 17:22:00,94.0,76.0,-100.00,SE,129,3.0,8.0,56,0.00,,,0.00,,2013-08-09 21:22:00,
2013-08-09 17:43:00,92.0,75.0,-100.00,SE,145,3.0,8.0,57,0.00,,,0.00,,2013-08-09 21:43:00,
2013-08-09 17:52:00,92.0,75.0,-100.00,SE,145,3.0,8.0,57,0.00,,,0.00,,2013-08-09 21:52:00,
2013-08-09 18:02:00,92.0,75.0,-100.00,SE,145,3.0,8.0,57,0.00,,,0.00,,2013-08-09 22:02:00,
2013-08-09 18:11:00,92.0,75.0,-100.00,SE,145,3.0,8.0,57,0.00,,,0.00,,2013-08-09 22:11:00,
2013-08-09 18:22:00,92.0,75.0,-100.00,SE,145,3.0,8.0,57,0.00,,,0.00,,2013-08-09 22:22:00,
2013-08-09 18:43:00,91.0,74.0,-100.00,SSE,163,2.0,6.0,57,0.00,,,0.00,,2013-08-09 22:43:00,
2013-08-09 18:52:00,91.0,74.0,-100.00,SSE,163,2.0,6.0,57,0.00,,,0.00,,2013-08-09 22:52:00,
2013-08-09 19:02:00,91.0,74.0,-100.00,SSE,163,2.0,6.0,57,0.00,,,0.00,,2013-08-09 23:02:00,
2013-08-09 19:11:00,91.0,74.0,-100.00,SSE,163,2.0,6.0,57,0.00,,,0.00,,2013-08-09 23:11:00,
2013-08-09 19:22:00,91.0,74.0,-100.00,SSE,163,2.0,6.0,57,0.00,,,0.00,,2013-08-09 23:22:00,
2013-08-09 19:52:00,86.0,74.0,-100.00,SE,127,2.0,5.0,67,0.00,,,0.00,,2013-08-09 23:52:00,
2013-08-09 20:01:00,86.0,74.0,-100.00,SE,127,2.0,5.0,67,0.00,,,0.00,,2013-08-10 00:01:00,
2013-08-09 20:11:00,86.0,74.0,-100.00,SE,127,2.0,5.0,67,0.00,,,0.00,,2013-08-10 00:11:00,
2013-08-09 20:22:00,86.0,74.0,-100.00,SE,127,2.0,5.0,67,0.00,,,0.00,,2013-08-10 00:22:00,
2013-08-09 20:53:00,81.0,73.0,-100.00,SE,146,1.0,6.0,77,0.00,,,0.00,,2013-08-10 00:53:00,
2013-08-09 21:02:00,81.0,73.0,-100.00,SE,146,1.0,6.0,77,0.00,,,0.00,,2013-08-10 01:02:00,
2013-08-09 21:11:00,81.0,73.0,-100.00,SE,146,1.0,6.0,77,0.00,,,0.00,,2013-08-10 01:11:00,
2013-08-09 21:22:00,81.0,73.0,-100.00,SE,146,1.0,6.0,77,0.00,,,0.00,,2013-08-10 01:22:00,
2013-08-09 21:43:00,79.0,74.0,-100.00,West,268,1.0,4.0,85,0.00,,,0.00,,2013-08-10 01:43:00,
2013-08-09 21:52:00,79.0,74.0,-100.00,West,268,1.0,4.0,85,0.00,,,0.00,,2013-08-10 01:52:00,
2013-08-09 22:03:00,79.0,74.0,-100.00,West,268,1.0,4.0,85,0.00,,,0.00,,2013-08-10 02:03:00,
2013-08-09 22:11:00,79.0,74.0,-100.00,West,268,1.0,4.0,85,0.00,,,0.00,,2013-08-10 02:11:00,
2013-08-09 22:21:00,79.0,74.0,-100.00,West,268,1.0,4.0,85,0.00,,,0.00,,2013-08-10 02:21:00,
2013-08-09 22:42:00,77.0,75.0,-100.00,SSW,213,0.0,2.0,93,0.00,,,0.00,,2013-08-10 02:42:00,
2013-08-09 22:52:00,77.0,75.0,-100.00,SSW,213,0.0,2.0,93,0.00,,,0.00,,2013-08-10 02:52:00,
2013-08-09 23:01:00,77.0,75.0,-100.00,SSW,213,0.0,2.0,93,0.00,,,0.00,,2013-08-10 03:01:00,
2013-08-09 23:11:00,77.0,75.0,-100.00,SSW,213,0.0,2.0,93,0.00,,,0.00,,2013-08-10 03:11:00,
2013-08-09 23:22:00,77.0,75.0,-100.00,SSW,213,0.0,2.0,93,0.00,,,0.00,,2013-08-10 03:22:00,
2013-08-09 23:42:00,76.0,74.0,-100.00,SSW,201,0.0,0.0,95,0.00,,,0.00,,2013-08-10 03:42:00,
2013-08-09 23:52:00,76.0,74.0,-100.00,SSW,201,0.0,0.0,95,0.00,,,0.00,,2013-08-10 03:52:00,